Year,Month,Day,Hour,Minute,Value (Times are PST for temperature in C)
2015,02,21,07,42,3.60
2015,02,21,07,43,3.60
2015,02,21,07,44,3.60
2015,02,21,07,45,3.60
2015,02,21,07,46,3.60
2015,02,21,07,47,3.60
2015,02,21,07,48,3.60
2015,02,21,07,49,3.60
2015,02,21,07,50,3.60
2015,02,21,07,51,3.60
2015,02,21,07,52,3.60
2015,02,21,07,53,3.60
2015,02,21,07,54,3.60
2015,02,21,07,55,3.60
2015,02,21,07,56,3.60
2015,02,21,07,57,3.60
2015,02,21,10,49,8.90
2015,02,21,10,50,8.90
2015,02,21,10,51,8.90
2015,02,21,10,52,9.00
2015,02,21,10,53,9.00
2015,02,21,10,54,9.10
2015,02,21,10,55,9.10
2015,02,21,10,56,9.20
2015,02,21,10,57,9.20
2015,02,21,10,58,9.20
2015,02,21,10,59,9.20
2015,02,21,11,00,9.20
2015,02,21,11,01,9.20
2015,02,21,11,02,9.30
2015,02,21,11,03,9.30
2015,02,21,11,04,9.30
2015,02,21,11,05,9.30
2015,02,21,11,06,9.40
2015,02,21,11,07,9.40
2015,02,21,11,08,9.40
2015,02,21,11,09,9.40
2015,02,21,11,10,9.40
2015,02,21,11,11,9.50
2015,02,21,11,12,9.50
2015,02,21,11,13,9.60
2015,02,21,11,14,9.60
2015,02,21,11,15,9.70
2015,02,21,11,16,9.70
2015,02,21,11,17,9.80
2015,02,21,11,18,9.80
2015,02,21,11,19,9.80
2015,02,21,11,20,9.80
2015,02,21,11,21,9.80
2015,02,21,11,22,9.80
2015,02,21,11,23,9.80
2015,02,21,11,24,9.80
2015,02,21,11,25,9.80
2015,02,21,11,26,9.80
2015,02,21,11,27,9.70
2015,02,21,11,28,9.60
2015,02,21,11,29,9.60
2015,02,21,11,30,9.50
2015,02,21,11,31,9.50
2015,02,21,11,32,9.50
2015,02,21,11,33,9.60
2015,02,21,11,34,9.60
2015,02,21,11,35,9.60
2015,02,21,11,36,9.60
2015,02,21,11,37,9.60
2015,02,21,11,38,9.60
2015,02,21,11,39,9.60
2015,02,21,11,40,9.70
2015,02,21,11,41,9.70
2015,02,21,11,42,9.70
2015,02,21,11,43,9.70
2015,02,21,11,44,9.70
2015,02,21,11,45,9.70
2015,02,21,11,46,9.70
2015,02,21,11,47,9.70
2015,02,21,11,48,9.70
2015,02,21,11,49,9.80
2015,02,21,11,50,9.80
2015,02,21,11,51,9.90
2015,02,21,11,52,9.90
2015,02,21,11,53,9.90
2015,02,21,11,54,9.90
2015,02,21,11,55,9.90
2015,02,21,11,56,9.90
2015,02,21,11,57,9.90
2015,02,21,11,58,9.90
2015,02,21,11,59,9.90
2015,02,21,12,00,9.90
2015,02,21,12,01,10.00
2015,02,21,12,02,10.00
2015,02,21,12,03,10.10
2015,02,21,12,04,10.10
2015,02,21,12,05,10.10
2015,02,21,12,06,10.20
2015,02,21,12,07,10.20
2015,02,21,12,08,10.20
2015,02,21,12,09,10.30
2015,02,21,12,10,10.30
2015,02,21,12,11,10.40
2015,02,21,12,12,10.40
2015,02,21,12,13,10.50
2015,02,21,12,14,10.50
2015,02,21,12,15,10.60
2015,02,21,12,16,10.60
2015,02,21,12,17,10.60
2015,02,21,12,18,10.70
2015,02,21,12,19,10.70
2015,02,21,12,20,10.70
2015,02,21,12,21,10.70
2015,02,21,12,22,10.80
2015,02,21,12,23,10.80
2015,02,21,12,24,10.80
2015,02,21,12,25,10.80
2015,02,21,12,26,10.80
2015,02,21,12,27,10.80
2015,02,21,12,28,10.80
2015,02,21,12,29,10.80
2015,02,21,12,30,10.80
2015,02,21,12,31,10.90
2015,02,21,12,32,10.90
2015,02,21,12,33,10.90
2015,02,21,12,34,10.90
2015,02,21,12,35,10.90
2015,02,21,12,36,10.90
2015,02,21,12,37,10.90
2015,02,21,12,38,10.90
2015,02,21,12,39,11.00
2015,02,21,12,40,11.10
2015,02,21,12,41,11.10
2015,02,21,12,42,11.10
2015,02,21,12,43,11.10
2015,02,21,12,44,11.00
2015,02,21,12,45,11.00
2015,02,21,12,46,11.00
2015,02,21,12,47,11.10
2015,02,21,12,48,11.10
2015,02,21,12,49,11.10
2015,02,21,12,50,11.10
2015,02,21,12,51,11.20
2015,02,21,12,52,11.20
2015,02,21,12,53,11.20
2015,02,21,12,54,11.20
2015,02,21,12,55,11.30
2015,02,21,12,56,11.30
2015,02,21,12,57,11.30
2015,02,21,12,58,11.40
2015,02,21,12,59,11.50
2015,02,21,13,00,11.60
2015,02,21,13,01,11.60
2015,02,21,13,02,11.60
2015,02,21,13,03,11.60
2015,02,21,13,04,11.60
2015,02,21,13,05,11.60
2015,02,21,13,06,11.60
2015,02,21,13,07,11.60
2015,02,21,13,08,11.60
2015,02,21,13,09,11.60
2015,02,21,13,10,11.60
2015,02,21,13,11,11.70
2015,02,21,13,12,11.70
2015,02,21,13,13,11.80
2015,02,21,13,14,11.80
2015,02,21,13,15,11.70
2015,02,21,13,16,11.70
2015,02,21,13,17,11.70
2015,02,21,13,18,11.60
2015,02,21,13,19,11.60
2015,02,21,13,20,11.60
2015,02,21,13,21,11.60
2015,02,21,13,22,11.60
2015,02,21,13,23,11.60
2015,02,21,13,24,11.60
2015,02,21,13,25,11.60
2015,02,21,13,26,11.60
2015,02,21,13,27,11.70
2015,02,21,13,28,11.70
2015,02,21,13,29,11.70
2015,02,21,13,30,11.80
2015,02,21,13,31,11.90
2015,02,21,13,32,11.90
2015,02,21,13,33,11.90
2015,02,21,13,34,11.90
2015,02,21,13,35,11.90
2015,02,21,13,36,11.90
2015,02,21,13,37,11.90
2015,02,21,13,38,11.90
2015,02,21,13,39,11.90
2015,02,21,13,40,11.80
2015,02,21,13,41,11.70
2015,02,21,13,42,11.70
2015,02,21,13,43,11.80
2015,02,21,13,44,11.80
2015,02,21,13,45,11.80
2015,02,21,13,46,11.70
2015,02,21,13,47,11.80
2015,02,21,13,48,11.80
2015,02,21,13,49,11.90
2015,02,21,13,50,12.00
2015,02,21,13,51,12.10
2015,02,21,13,52,12.20
2015,02,21,13,53,12.20
2015,02,21,13,54,12.20
2015,02,21,13,55,12.10
2015,02,21,13,56,12.10
2015,02,21,13,57,12.00
2015,02,21,13,58,11.90
2015,02,21,13,59,11.90
2015,02,21,14,00,11.90
2015,02,21,14,01,12.00
2015,02,21,14,02,12.00
2015,02,21,14,03,12.00
2015,02,21,14,04,12.00
2015,02,21,14,05,12.00
2015,02,21,14,06,12.10
2015,02,21,14,07,12.10
2015,02,21,14,08,12.10
2015,02,21,14,09,12.20
2015,02,21,14,10,12.20
2015,02,21,14,11,12.10
2015,02,21,14,12,12.00
2015,02,21,14,13,12.00
2015,02,21,14,14,11.90
2015,02,21,14,15,11.90
2015,02,21,14,16,11.90
2015,02,21,14,17,11.90
2015,02,21,14,18,11.90
2015,02,21,14,19,11.90
2015,02,21,14,20,11.90
2015,02,21,14,21,11.90
2015,02,21,14,22,12.00
2015,02,21,14,23,12.00
2015,02,21,14,24,12.00
2015,02,21,14,25,12.00
2015,02,21,14,26,12.00
2015,02,21,14,27,12.10
2015,02,21,14,28,12.10
2015,02,21,14,29,12.20
2015,02,21,14,30,12.20
2015,02,21,14,31,12.30
2015,02,21,14,32,12.40
2015,02,21,14,33,12.40
2015,02,21,14,34,12.40
2015,02,21,14,35,12.40
2015,02,21,14,36,12.40
2015,02,21,14,37,12.50
2015,02,21,14,38,12.50
2015,02,21,14,39,12.50
2015,02,21,14,40,12.50
2015,02,21,14,41,12.50
2015,02,21,14,42,12.50
2015,02,21,14,43,12.50
2015,02,21,14,44,12.40
2015,02,21,14,45,12.50
2015,02,21,14,46,12.50
2015,02,21,14,47,12.60
2015,02,21,14,48,12.60
2015,02,21,14,49,12.60
2015,02,21,14,50,12.60
2015,02,21,14,51,12.60
2015,02,21,14,52,12.60
2015,02,21,14,53,12.60
2015,02,21,14,54,12.60
2015,02,21,14,55,12.60
2015,02,21,14,56,12.60
2015,02,21,14,57,12.60
2015,02,21,14,58,12.60
2015,02,21,14,59,12.60
2015,02,21,15,00,12.60
2015,02,21,15,01,12.60
2015,02,21,15,02,12.60
2015,02,21,15,03,12.60
2015,02,21,15,04,12.50
2015,02,21,15,05,12.50
2015,02,21,15,06,12.50
2015,02,21,15,07,12.60
2015,02,21,15,08,12.60
2015,02,21,15,09,12.70
2015,02,21,15,10,12.70
2015,02,21,15,11,12.70
2015,02,21,15,12,12.80
2015,02,21,15,13,12.80
2015,02,21,15,14,12.80
2015,02,21,15,15,12.80
2015,02,21,15,16,12.80
2015,02,21,15,17,12.90
2015,02,21,15,18,12.90
2015,02,21,15,19,12.90
2015,02,21,15,20,12.90
2015,02,21,15,21,12.90
2015,02,21,15,22,12.90
2015,02,21,15,23,12.90
2015,02,21,15,24,12.90
2015,02,21,15,25,12.90
2015,02,21,15,26,13.00
2015,02,21,15,27,13.00
2015,02,21,15,28,13.00
2015,02,21,15,29,13.00
2015,02,21,15,30,12.90
2015,02,21,15,31,12.90
2015,02,21,15,32,12.90
2015,02,21,15,33,12.80
2015,02,21,15,34,12.80
2015,02,21,15,35,12.80
2015,02,21,15,36,12.90
2015,02,21,15,37,12.90
2015,02,21,15,38,12.80
2015,02,21,15,39,12.80
2015,02,21,15,40,12.80
2015,02,21,15,41,12.80
2015,02,21,15,42,12.90
2015,02,21,15,43,12.90
2015,02,21,15,44,12.90
2015,02,21,15,45,12.90
2015,02,21,15,46,12.90
2015,02,21,15,47,13.00
2015,02,21,15,48,13.00
2015,02,21,15,49,12.90
2015,02,21,15,50,13.00
2015,02,21,15,51,13.00
2015,02,21,15,52,13.00
2015,02,21,15,53,13.00
2015,02,21,15,54,13.00
2015,02,21,15,55,13.00
2015,02,21,15,56,13.00
2015,02,21,15,57,13.00
2015,02,21,15,58,13.00
2015,02,21,15,59,13.00
2015,02,21,16,00,13.00
2015,02,21,16,01,13.00
2015,02,21,16,02,13.00
2015,02,21,16,03,13.00
2015,02,21,16,04,13.00
2015,02,21,16,05,12.90
2015,02,21,16,06,12.90
2015,02,21,16,07,12.90
2015,02,21,16,08,12.90
2015,02,21,16,09,12.90
2015,02,21,16,10,12.90
2015,02,21,16,11,12.90
2015,02,21,16,12,12.90
2015,02,21,16,13,12.90
2015,02,21,16,14,12.90
2015,02,21,16,15,12.90
2015,02,21,16,16,12.90
2015,02,21,16,17,12.90
2015,02,21,16,18,12.90
2015,02,21,16,19,12.90
2015,02,21,16,20,12.90
2015,02,21,16,21,12.90
2015,02,21,16,22,12.90
2015,02,21,16,23,12.90
2015,02,21,16,24,12.90
2015,02,21,16,25,12.90
2015,02,21,16,26,12.90
2015,02,21,16,27,12.90
2015,02,21,16,28,12.90
2015,02,21,16,29,12.90
2015,02,21,16,30,12.90
2015,02,21,16,31,12.90
2015,02,21,16,32,12.90
2015,02,21,16,33,12.90
2015,02,21,16,34,13.00
2015,02,21,16,35,13.00
2015,02,21,16,36,13.00
2015,02,21,16,37,12.90
2015,02,21,16,38,12.90
2015,02,21,16,39,12.80
2015,02,21,16,40,12.80
2015,02,21,16,41,12.80
2015,02,21,16,42,12.80
2015,02,21,16,43,12.80
2015,02,21,16,44,12.80
2015,02,21,16,45,12.80
2015,02,21,16,46,12.80
2015,02,21,16,47,12.80
2015,02,21,16,48,12.80
2015,02,21,16,49,12.80
2015,02,21,16,50,12.80
2015,02,21,16,51,12.80
